Location: Agadir Mansour Mhndou
(31.2424°N, 8.7730°W)
Time: 05:09:20
(UTC+00:00)

Cosmos 1821 Rocket - Pass Details

Date: 16 October 2021
Orbit: 944 x 1005 km, 82.9° (Epoch: 28 November)

Event Time Altitude Azimuth Distance (km) Brightness Sun altitude
Rises 19:03:38 0° 190° (S) 3,708 7.2 -13.9°
Reaches altitude 10° 19:06:10 10° 193° (SSW) 2,765 6.6 -14.5°
Maximum altitude 19:12:31 71° 276° (W) 1,060 4.4 -15.8°
Drops below altitude 10° 19:18:54 10° 1° (N) 2,780 6.4 -17.2°
Sets 19:21:27 0° 3° (N) 3,729 7.0 -17.7°
